Location: Bottens
(46.6171°N, 6.6605°E)
Time: 15:21:38
(UTC+00:00)

IRS-1D - Pass Details

Date: 20 June 2021
Orbit: 739 x 817 km, 98.6° (Epoch: 01 August)

Event Time Altitude Azimuth Distance (km) Brightness Sun altitude
Rises 01:59:08 0° 15° (NNE) 3,284 8.3 -12.7°
Reaches altitude 10° 02:01:29 10° 16° (NNE) 2,339 7.3 -12.5°
Maximum altitude 02:06:39 80° 104° (ESE) 783 3.6 -12.0°
Enters shadow 02:11:12 13° 191° (S) 2,090 5.2 -11.6°
